Theta_e
305 308 311 311 316 315 311 311 310 307 306 306 306 306 307 306 306 307 300 302 300 297 296 297 297 299 300 300 299 298 298 296 292 289 293 292 294 296 297 297 297 298 297 297 298 299 296 299 298 295 295 293 296 294
306 308 306 306 306 308 307 306 305 305 305 305 304 304 304 304 303 303 298 298 298 296 296 295 294 294 295 296 295 295 295 294 293 291 287 291 295 295 296 294 294 296 296 297 296 294 295 296 295 295 294 291 294 296
304 302 302 303 304 305 303 303 303 302 301 301 300 299 297 296 296 298 294 294 294 293 293 293 293 293 294 294 296 293 292 294 293 291 289 291 294 292 293 293 294 294 294 293 293 294 294 294 295 296 296 296 297 295
300 300 300 300 300 301 301 301 299 297 295 294 294 294 295 294 295 295 296 296 295 293 293 292 293 293 293 293 294 294 293 293 291 290 290 290 293 292 293 293 293 293 294 295 290 293 294 296 296 297 297 297 297 297
298 299 299 298 297 296 295 294 293 293 294 294 295 295 295 295 295 295 296 296 297 294 292 291 294 294 293 294 294 294 293 290 289 290 287 290 292 293 292 293 294 293 293 291 291 294 294 296 298 298 296 298 298 297
296 295 294 294 293 292 292 292 293 293 295 295 295 294 295 295 295 295 290 296 296 295 291 293 293 294 294 294 294 293 292 290 289 289 289 290 292 292 291 294 294 294 295 295 294 297 297 297 298 298 297 296 296 296
293 293 293 292 291 291 292 293 294 295 295 295 295 295 296 295 295 292 291 294 296 297 291 291 291 291 294 294 291 291 292 290 290 289 289 291 292 290 287 294 294 293 294 294 297 296 298 297 297 297 294 295 295 295
294 294 293 292 291 292 293 294 294 294 293 293 294 293 291 291 292 293 295 295 296 295 292 292 292 293 294 292 291 290 288 289 288 291 290 292 291 291 292 294 294 294 294 297 297 297 296 297 297 294 294 294 295 295
294 293 291 291 290 290 292 293 294 295 295 296 296 295 293 292 290 293 295 295 296 296 291 293 294 295 294 293 289 290 287 294 290 289 292 290 291 293 294 294 294 295 297 298 296 296 297 295 294 294 294 294 293 293
292 291 290 290 290 290 291 292 294 295 295 295 295 292 287 292 294 294 293 289 288 288 289 292 292 293 292 289 287 288 292 296 295 293 292 292 294 295 294 295 295 298 296 294 295 295 294 295 294 293 292 292 293 292
292 291 290 291 291 292 293 294 295 295 296 296 290 289 292 294 294 287 285 289 287 293 291 293 293 292 292 291 290 291 294 295 297 292 295 297 295 293 296 296 295 293 293 294 294 294 293 294 292 292 293 292 291 290
292 292 291 292 292 294 295 295 295 295 294 294 293 294 295 291 287 289 289 292 295 298 294 296 296 291 291 292 290 291 295 290 296 294 299 294 299 298 297 296 295 295 295 295 294 294 294 293 292 292 291 291 290 290
292 292 292 292 293 293 294 294 295 295 295 294 292 290 289 286 285 290 289 295 292 293 293 291 291 293 290 289 293 293 296 292 294 292 296 294 297 296 296 295 295 296 296 295 296 295 295 294 293 292 291 290 289 289
291 291 291 291 292 293 293 293 294 294 293 289 287 285 287 283 291 292 296 293 292 291 292 290 292 292 292 294 294 296 295 295 291 295 298 294 297 298 296 296 296 296 292 292 292 292 291 291 290 290 289 288 288 286
291 291 291 291 291 292 292 293 294 294 293 290 288 287 289 292 294 294 290 293 293 294 294 293 293 292 291 292 293 295 294 294 297 296 294 296 296 297 297 296 293 291 289 289 289 289 289 288 288 288 287 287 287 287
293 293 292 292 291 292 294 294 294 295 292 291 292 291 293 293 288 285 287 289 292 293 292 291 293 292 295 296 297 293 298 296 296 294 293 293 294 293 292 291 290 289 289 287 287 287 287 286 286 287 287 288 287 288
294 294 293 293 293 293 293 295 294 291 290 293 288 286 287 287 286 287 286 290 292 293 290 292 295 296 292 294 296 292 290 289 288 290 288 290 290 290 289 289 289 288 287 286 286 286 286 286 286 286 286 286 287 286
294 293 293 293 294 294 295 294 294 292 293 290 289 287 286 285 285 285 286 289 292 293 294 295 293 296 291 296 293 295 295 291 291 290 290 290 290 289 288 287 287 286 285 285 286 286 285 285 285 284 283 284 284 283
293 292 293 294 294 294 294 294 292 293 291 289 288 289 289 288 288 289 289 289 292 292 292 291 295 293 294 291 290 292 288 286 287 287 286 288 288 287 287 286 285 286 285 285 284 283 283 283 284 284 283 283 282 281
289 289 289 291 292 293 294 293 293 291 292 291 291 291 291 290 290 287 288 291 292 293 293 293 293 291 290 289 288 289 288 285 285 284 284 284 287 286 285 285 285 284 284 284 283 282 282 281 282 281 280 280 280 279
292 290 287 291 292 292 291 291 291 290 291 291 291 291 292 291 290 290 290 290 290 296 294 291 288 288 287 287 289 288 285 285 284 285 284 281 283 284 283 283 282 283 282 282 281 281 281 281 280 279 277 277 276 276
292 291 291 291 291 291 289 290 290 290 291 291 291 291 291 288 288 290 291 291 292 291 288 287 288 286 289 287 286 287 287 286 285 284 283 283 281 281 281 282 281 279 279 279 278 278 278 277 276 275 274 274 274 274
291 291 292 291 288 285 287 290 292 292 292 292 293 294 292 291 292 291 290 290 288 284 284 284 286 288 286 288 287 287 287 285 284 283 283 282 281 280 279 278 278 278 276 278 277 276 275 275 274 274 273 273 273 273
290 291 288 289 289 284 288 287 291 292 292 293 294 292 293 290 291 291 292 289 286 284 285 285 285 284 284 287 285 284 284 284 283 281 280 280 278 277 277 277 277 277 277 276 275 274 273 273 273 273 273 272 272 271
284 283 284 283 286 285 286 287 287 292 287 289 290 287 288 291 288 289 289 285 284 281 282 284 284 285 284 283 284 283 282 281 280 279 277 277 276 276 276 276 276 274 273 273 272 273 272 272 272 272 272 271 270 270
286 281 286 285 282 287 289 285 284 285 288 287 288 290 289 287 286 286 289 284 281 282 278 280 282 283 282 283 282 280 278 279 278 278 277 277 277 276 271 272 273 273 272 272 272 272 271 271 271 271 270 270 271 271
285 282 291 289 290 291 286 287 291 288 285 284 286 285 284 285 283 285 283 283 284 286 287 286 284 282 281 280 279 278 278 278 277 277 277 276 275 273 272 271 271 272 272 271 271 271 271 271 270 271 271 271 271 271
286 289 286 287 288 290 284 283 284 285 286 289 288 285 284 284 285 282 283 286 286 285 284 283 282 281 280 279 278 278 277 277 277 276 276 274 273 273 272 272 271 270 270 270 270 271 270 270 271 270 270 271 271 271
288 290 289 284 285 287 286 287 286 289 289 289 285 284 285 286 282 282 287 285 285 284 280 279 279 279 278 278 278 277 277 277 277 268 266 262 261 271 271 270 270 270 269 270 269 270 270 270 270 270 271 270 271 271
284 289 289 285 286 287 286 287 286 287 287 286 286 286 286 284 288 288 287 285 284 282 282 281 279 279 278 278 277 276 276 276 275 273 263 261 267 271 270 270 269 269 269 269 269 269 270 270 270 269 269 269 269 270
289 287 287 288 288 284 283 282 283 282 280 281 278 282 282 280 284 287 286 285 285 283 282 279 279 280 279 277 276 272 268 274 274 273 273 272 271 270 270 269 269 269 269 269 269 269 269 269 268 268 268 268 268 268
287 290 289 290 289 288 286 283 283 283 280 281 281 276 278 278 279 275 285 285 284 280 280 280 279 278 278 277 277 276 275 274 273 273 272 271 271 270 269 269 270 269 269 268 268 268 268 268 268 267 267 268 268 268
286 286 288 289 287 287 283 283 284 284 281 281 280 275 278 282 282 278 282 283 283 282 281 281 280 279 278 278 276 275 274 274 273 272 271 271 270 270 270 269 269 269 268 268 268 268 267 267 267 267 267 267 267 267
Wind_Speed
22 20 30 43 47 43 39 34 31 33 33 35 37 34 29 29 26 21 14 15 8 3 2 4 3 4 3 3 4 5 4 3 3 3 3 3 2 1 2 1 3 2 2 2 2 3 5 8 1 5 6 3 3 3
22 40 51 57 55 47 43 44 44 40 37 37 37 34 31 25 22 26 13 12 20 5 4 14 15 12 6 3 5 2 4 4 4 3 0 2 1 1 2 3 3 3 3 2 4 5 5 5 7 6 4 4 3 5
53 55 56 59 57 55 55 50 48 44 37 34 31 30 28 26 23 25 27 22 20 4 4 5 4 12 13 16 6 4 2 3 2 3 3 2 2 3 1 4 2 3 2 3 4 6 7 7 4 4 6 5 5 7
54 59 58 57 56 54 53 50 45 43 38 35 31 29 28 27 31 31 24 12 12 4 4 1 5 5 7 12 15 12 6 5 5 3 2 3 2 3 3 4 4 5 1 3 5 8 6 6 4 3 7 6 8 10
57 60 60 55 52 51 50 47 45 41 40 38 36 35 35 34 32 33 31 22 11 5 4 3 4 5 8 10 10 9 9 4 2 2 2 2 1 0 2 2 5 4 6 4 5 7 6 6 4 6 7 1 2 4
55 54 54 51 51 50 48 47 45 42 38 37 37 35 33 30 30 22 4 15 17 12 4 3 2 2 3 4 5 5 3 3 2 3 2 3 3 4 1 3 6 5 4 6 6 6 4 3 3 2 2 1 2 3
53 51 51 52 51 49 48 45 44 41 35 32 30 26 22 20 15 6 5 5 6 7 4 3 1 3 6 2 3 2 3 1 3 1 2 3 2 3 2 10 12 7 9 9 5 4 3 2 2 3 3 3 4 4
49 47 48 49 49 47 45 42 39 37 38 39 35 33 32 28 21 12 18 13 10 10 4 4 1 2 1 1 2 2 2 2 2 2 2 2 1 2 4 8 7 9 8 5 7 6 4 3 1 2 1 1 2 3
46 47 47 46 44 42 41 39 38 35 30 28 24 23 14 10 5 2 13 17 18 9 3 2 4 2 2 1 1 2 2 1 1 1 3 3 2 4 9 8 8 6 6 6 5 5 5 4 5 2 1 3 3 3
47 45 43 42 40 38 36 35 29 24 20 15 6 7 4 4 4 6 7 4 5 4 3 2 1 1 4 1 2 2 1 2 2 4 2 2 4 13 11 10 5 5 6 6 5 3 2 3 2 3 5 6 3 4
42 40 39 37 36 34 28 21 17 14 7 4 3 3 8 5 5 4 3 3 2 2 1 2 3 3 2 3 2 2 2 2 2 4 4 3 3 5 10 6 6 6 6 5 4 3 4 3 3 4 4 3 3 3
38 36 34 32 28 22 18 13 12 12 9 11 17 13 5 4 5 5 0 1 1 3 2 4 2 3 1 3 3 2 2 2 5 3 3 2 3 7 9 10 8 6 2 2 4 4 4 2 3 3 3 1 2 3
34 32 30 24 21 21 20 22 23 23 17 9 7 5 4 3 5 4 2 1 0 2 1 2 1 2 3 3 1 1 2 4 1 0 3 2 1 3 6 6 7 2 5 3 1 1 2 3 3 2 3 6 9 10
28 26 23 21 19 18 16 14 13 9 8 4 4 4 3 2 0 2 3 4 2 3 2 2 0 2 2 2 2 3 4 1 3 2 3 2 2 2 3 3 4 2 4 4 4 6 5 5 6 5 7 12 13 11
24 21 19 17 15 14 13 12 11 8 5 3 4 3 1 2 2 2 2 3 3 1 2 1 2 2 1 1 2 1 3 4 3 2 1 1 1 3 3 3 2 3 3 4 5 5 6 9 6 7 12 15 12 12
13 12 12 10 10 11 10 10 11 4 3 3 2 3 1 4 3 3 1 0 1 1 1 2 2 1 4 3 3 5 3 3 2 2 2 2 3 4 3 1 0 2 4 5 6 6 6 8 7 8 10 4 12 6
11 5 4 6 7 8 7 5 3 3 3 2 2 2 3 3 3 2 2 3 2 2 2 2 3 6 0 2 3 2 3 3 2 2 2 3 4 5 5 3 3 2 5 8 8 8 10 11 11 9 5 11 6 5
6 6 6 8 7 6 3 3 2 2 2 1 2 3 2 2 3 2 3 2 3 2 1 2 2 2 3 3 2 2 2 3 3 2 2 4 5 4 2 2 4 6 9 11 12 13 13 11 5 5 10 12 6 5
8 7 7 5 2 1 2 0 2 2 3 2 1 2 3 2 3 2 3 3 3 2 1 1 2 3 3 1 2 3 2 2 2 2 2 3 3 2 3 6 9 10 8 8 7 7 9 10 5 5 6 5 6 7
5 2 2 3 0 1 0 1 3 2 1 3 1 2 3 3 3 3 3 3 3 2 2 3 3 3 3 3 3 3 2 2 1 1 2 2 1 0 4 3 4 7 7 7 6 7 7 8 4 5 5 4 4 5
4 4 3 2 1 1 1 0 1 3 2 2 1 3 2 1 2 3 3 4 2 3 3 4 3 3 1 3 5 3 2 3 2 2 3 2 2 2 4 3 5 2 3 4 5 8 10 7 5 9 11 13 14 14
2 1 1 1 2 2 2 2 1 2 1 2 2 1 1 1 2 3 2 2 3 4 4 3 3 3 3 2 4 7 5 5 3 3 3 2 1 2 2 5 6 5 9 9 9 8 9 8 9 11 16 18 20 19
2 1 0 1 3 3 4 3 1 1 1 2 1 1 2 1 2 1 0 3 3 2 2 2 4 5 3 4 3 2 5 6 2 2 4 2 4 8 10 12 13 10 4 6 6 6 7 11 13 16 20 22 21 23
1 1 2 2 2 2 1 2 1 2 2 1 0 1 2 1 1 1 2 2 2 0 1 2 4 1 1 1 0 2 2 4 3 6 8 6 3 6 8 10 13 14 5 5 10 13 15 17 20 21 21 22 24 24
4 5 4 2 2 3 2 0 2 0 2 2 2 3 2 1 1 2 3 3 1 1 2 2 1 1 1 1 3 6 6 6 6 4 6 7 6 8 11 13 11 8 12 14 14 17 19 19 20 21 23 23 22 22
1 4 5 5 2 3 4 3 3 4 2 1 3 2 2 2 1 4 3 3 3 3 3 4 3 2 2 3 4 3 6 5 5 5 3 7 10 7 2 3 3 6 16 15 16 17 18 18 19 21 21 21 22 23
3 4 3 3 2 2 1 1 1 3 3 4 2 1 3 1 5 4 2 1 2 3 8 9 12 7 6 8 12 10 6 6 7 5 5 7 10 11 12 7 6 12 13 15 16 18 20 22 19 19 20 22 22 23
4 2 5 3 2 2 3 1 3 4 3 3 3 3 6 6 4 3 3 5 16 16 15 12 10 12 15 14 10 10 7 5 4 3 5 7 7 7 13 11 10 14 14 15 16 17 18 21 21 21 21 22 24 25
3 2 3 2 1 2 5 6 4 3 2 3 5 3 3 3 3 2 5 18 17 16 15 14 13 12 12 10 7 5 3 1 2 3 2 3 4 7 13 12 14 14 15 15 16 18 18 18 19 20 21 22 22 22
4 3 3 3 5 5 4 4 2 2 0 1 1 2 2 2 0 5 15 19 17 14 15 17 19 15 14 12 8 6 4 3 3 3 3 3 4 10 11 14 15 15 14 16 18 19 18 19 20 21 21 22 20 18
2 2 2 3 3 3 3 2 1 1 1 1 1 3 3 2 2 6 13 12 11 12 16 14 15 14 15 12 10 8 2 3 2 4 3 5 6 8 11 13 11 12 13 15 16 16 18 18 18 19 20 20 20 19
2 4 3 3 2 1 1 1 1 1 1 1 2 1 3 3 2 2 7 12 13 14 17 20 18 16 10 8 8 5 3 3 1 2 4 5 7 8 8 9 10 11 12 14 11 13 14 15 16 17 18 18 18 18
1 1 1 1 1 1 1 2 1 2 1 0 1 2 2 3 4 3 7 7 13 16 17 16 11 12 13 11 7 5 3 1 0 1 3 4 6 7 8 9 9 9 12 9 10 11 11 14 14 15 16 16 16 16
Wind_Direction
224 231 193 169 164 160 151 141 141 145 145 147 148 147 142 142 145 139 124 130 117 97 20 74 70 153 165 158 145 175 83 346 44 73 129 225 178 263 288 263 276 318 295 308 293 292 279 214 190 167 227 266 216 247
236 170 152 147 141 140 134 136 138 135 134 133 134 136 139 142 135 123 115 124 114 89 138 105 79 60 60 196 133 78 169 154 170 99 73 121 41 323 229 270 318 250 161 202 211 237 246 241 210 245 194 193 248 240
144 136 132 132 135 135 137 134 131 127 129 128 132 131 134 130 135 131 119 121 99 93 51 54 62 62 62 54 87 116 307 160 134 160 160 167 184 133 226 245 243 259 244 223 4 270 263 262 254 215 206 214 274 280
129 123 125 125 129 131 130 124 126 126 128 127 124 125 132 129 126 122 99 104 102 116 106 313 82 54 65 72 72 78 115 80 104 84 112 140 157 162 237 230 233 226 209 253 259 275 290 262 220 234 210 208 349 302
118 120 123 121 120 119 118 123 127 127 128 125 122 120 121 123 121 105 86 68 82 115 141 140 102 77 77 78 88 93 92 95 82 62 82 203 187 111 261 274 262 189 196 163 229 247 220 258 321 311 245 280 338 300
110 111 113 115 116 117 122 125 127 127 122 123 122 122 117 118 122 113 52 46 79 103 103 87 332 78 102 116 110 119 123 102 104 135 204 231 228 127 209 254 249 224 193 198 244 211 223 268 333 349 22 43 8 34
109 113 115 116 119 122 124 125 123 124 126 123 119 117 111 104 108 71 126 110 75 90 82 71 6 280 172 129 14 36 32 109 123 211 227 198 229 123 192 253 251 239 262 264 204 141 209 140 252 286 65 3 37 64
112 113 115 118 121 123 122 122 122 119 118 109 105 98 96 94 92 65 51 61 77 78 69 103 244 30 116 52 6 3 44 25 337 221 343 215 351 148 253 246 252 251 239 159 179 199 177 192 171 84 118 343 11 333
111 114 115 116 118 121 123 122 119 119 118 112 107 105 91 52 57 53 64 68 58 74 108 97 129 220 48 73 141 1 127 270 315 178 244 101 245 228 235 231 242 248 191 179 135 126 153 148 155 196 320 291 281 305
116 116 116 117 117 119 120 121 123 123 119 112 93 63 51 51 84 69 30 33 23 358 37 89 103 185 128 154 290 81 38 224 243 234 116 190 253 255 257 238 240 179 138 134 126 126 158 222 241 312 291 296 302 95
114 113 114 116 117 117 114 110 113 113 90 40 50 67 112 88 62 38 44 70 353 36 259 224 181 162 281 102 207 200 202 204 246 261 165 231 256 299 308 142 115 114 108 102 121 161 185 222 267 291 321 97 82 93
113 113 112 111 106 98 92 93 95 85 80 92 116 114 93 46 38 72 352 330 145 176 210 160 198 148 291 101 92 286 220 58 248 143 227 268 345 11 29 62 63 42 46 166 197 217 247 297 61 52 52 302 274 264
109 109 109 104 98 103 107 106 104 106 98 59 51 55 55 341 48 118 142 336 77 198 211 59 339 127 14 48 232 116 258 233 81 28 234 202 175 63 66 72 64 57 245 241 33 309 289 254 247 271 278 308 307 303
108 107 104 99 93 92 94 98 104 85 59 61 76 51 130 323 316 172 161 173 243 95 112 122 108 155 184 140 206 233 246 2 312 239 230 216 225 229 220 238 235 178 40 12 3 342 326 317 303 300 332 318 308 294
103 98 94 87 86 84 84 76 75 67 71 68 79 120 161 184 142 95 40 58 2 3 70 55 4 119 273 102 210 267 313 252 230 253 183 318 315 306 299 311 357 1 353 355 342 340 337 344 343 319 322 320 317 308
87 72 63 67 70 73 79 74 58 64 62 73 83 79 321 75 4 23 58 251 279 291 72 79 142 85 235 207 192 219 236 232 219 216 192 178 191 234 234 209 276 322 326 350 359 348 336 328 311 313 332 2 342 329
66 66 78 78 79 75 72 57 55 61 95 64 318 38 105 112 177 205 165 211 187 104 186 142 166 218 170 227 230 201 191 221 239 266 232 234 268 278 247 206 138 285 300 298 297 297 296 303 306 300 302 310 309 323
68 93 99 103 82 60 34 41 58 97 123 218 112 239 174 160 166 249 220 208 130 197 107 209 170 240 218 225 245 203 222 216 220 217 253 277 280 297 312 328 322 290 294 294 288 287 297 304 336 360 0 357 351 49
107 110 128 129 78 134 137 167 120 135 206 196 204 161 158 197 218 187 184 198 189 202 116 26 242 219 233 207 182 227 257 235 243 264 284 4 50 58 1 1 342 326 335 348 3 6 359 356 1 20 13 15 12 9
115 128 191 217 241 41 25 34 151 126 180 225 161 193 185 195 189 178 196 185 149 134 184 220 222 222 192 210 182 201 235 206 185 319 306 335 309 10 320 332 10 347 341 346 349 356 345 332 355 15 5 351 334 329
79 49 111 116 156 279 149 85 184 192 211 184 227 165 225 124 171 169 204 161 120 208 226 220 213 224 214 131 154 155 198 155 165 180 226 266 306 50 347 357 6 335 265 281 288 308 324 330 24 19 15 1 349 339
113 109 116 39 61 352 57 307 171 255 112 242 331 158 231 330 252 224 165 128 218 222 192 180 191 153 153 181 225 223 225 203 238 303 88 82 42 11 336 328 335 333 353 4 21 27 37 32 12 360 344 334 328 321
142 178 156 106 66 40 253 355 44 314 117 264 358 203 272 246 231 98 271 210 242 241 175 117 122 130 172 206 220 241 232 221 143 87 9 19 15 27 52 37 28 20 22 27 31 19 355 348 342 337 331 328 324 319
42 73 100 159 116 231 353 2 330 310 341 330 292 296 271 238 355 60 241 247 252 239 69 128 134 80 357 269 118 115 122 143 140 68 45 45 50 22 17 15 8 10 18 24 17 7 351 339 333 330 329 325 320 314
74 291 103 279 298 73 44 350 305 285 237 217 34 308 282 45 66 260 235 263 192 195 174 157 142 162 183 120 104 90 80 102 96 97 54 42 24 8 357 360 19 67 26 2 346 339 337 337 334 329 325 321 311 306
185 254 150 194 258 144 194 164 208 211 184 247 240 267 50 72 24 250 246 199 198 171 187 182 180 114 50 97 136 119 101 85 85 102 41 21 6 9 40 30 5 335 352 350 342 338 333 328 322 318 315 314 310 306
238 262 203 209 188 165 10 295 168 123 184 203 236 143 94 186 241 250 278 257 139 173 175 163 133 123 135 123 125 123 111 85 80 73 50 65 71 63 43 24 329 338 350 349 343 338 332 329 322 320 316 314 312 309
220 242 185 214 185 170 165 155 170 208 222 213 113 175 187 202 236 228 196 155 141 135 127 122 122 132 140 140 140 136 120 107 92 39 97 83 39 11 4 1 355 346 346 347 346 348 342 333 327 322 318 317 318 321
234 251 123 182 144 174 199 190 214 221 204 146 162 214 237 224 187 152 148 158 157 148 136 130 132 132 128 130 130 130 135 138 82 52 21 291 330 340 347 346 349 351 350 352 352 349 345 339 341 336 335 333 330 333
250 179 169 177 168 212 233 185 209 221 335 179 186 347 3 352 303 170 164 166 166 175 177 176 166 163 166 169 162 116 118 91 59 92 174 230 275 329 339 343 345 349 354 354 352 352 358 360 0 0 3 4 356 358
215 126 165 172 217 239 225 206 134 127 91 212 303 162 220 239 259 222 198 195 185 159 145 147 163 172 163 166 168 155 190 171 35 15 6 334 337 339 339 342 350 354 354 350 356 3 4 5 6 8 11 10 14 15
182 188 171 205 221 166 74 126 221 208 273 123 278 58 15 40 283 277 182 176 164 161 170 171 171 186 184 178 178 175 164 157 184 343 341 344 340 350 354 351 349 348 350 351 6 10 16 13 17 21 21 21 24 28
89 93 124 148 137 194 280 84 322 287 339 251 284 181 212 188 237 239 180 207 206 185 181 186 184 184 184 182 178 168 171 163 36 332 336 343 351 351 349 347 346 354 357 4 13 18 22 19 28 30 32 33 34 37